START_TIME,STEP,MOV.,H8,t_acc.,H43,t_acc.,M25,t_acc.,H9,t_acc.
1979-07-05 18:00:30.220 ,0,1,0.,12.0,0.,12.0,0.,12.0,0.,12.0
1979-07-05 18:00:42.220 ,0,1,0.,12.0,0.,12.0,0.,12.0,0.,12.0
1979-07-05 18:00:54.220 ,4,1,0.,12.0,0.,12.0,0.,12.0,0.,12.0
1979-07-05 18:01:06.220 ,4,1,0.,12.0,0.,12.0,0.,12.0,0.,12.0
1979-07-05 18:01:18.220 ,7,1,0.,12.0,0.,12.0,0.,12.0,0.,12.0
1979-07-05 18:01:30.220 ,7,1,0.,12.0,0.,12.0,0.,12.0,0.,12.0
1979-07-05 18:01:42.220 ,3,1,0.,12.0,0.,12.0,0.,12.0,0.,12.0
1979-07-05 18:01:54.220 ,3,1,0.,12.0,0.,12.0,0.,12.0,0.,12.0
1979-07-05 18:02:06.220 ,0,1,0.,12.0,0.,12.0,0.,12.0,0.,12.0
1979-07-05 18:02:18.220 ,0,1,0.,12.0,0.,12.0,0.,12.0,0.,12.0
1979-07-05 18:02:30.220 ,4,1,0.,12.0,0.,12.0,0.,12.0,0.,12.0
1979-07-05 18:02:42.220 ,4,1,0.,12.0,0.,12.0,0.,12.0,0.,12.0
1979-07-05 18:02:54.220 ,7,1,0.,12.0,0.,12.0,0.,12.0,0.,12.0
1979-07-05 18:03:06.220 ,7,1,0.,12.0,0.,12.0,0.,12.0,0.,12.0
1979-07-05 18:03:18.220 ,3,1,0.,12.0,0.,12.0,0.,12.0,0.,12.0
1979-07-05 18:03:30.220 ,3,1,0.,12.0,0.,12.0,0.,12.0,0.,12.0
1979-07-05 18:03:42.220 ,0,1,0.,12.0,0.,12.0,0.,12.0,0.,12.0
1979-07-05 18:03:54.220 ,0,1,0.,12.0,0.,12.0,0.,12.0,0.,12.0
1979-07-05 18:04:06.220 ,4,1,0.,12.0,0.,12.0,0.,12.0,0.,12.0
1979-07-05 18:04:18.220 ,4,1,0.,12.0,0.,12.0,0.,12.0,0.,12.0
1979-07-05 18:04:30.220 ,7,1,0.,12.0,0.,12.0,0.,12.0,0.,12.0
1979-07-05 18:04:42.220 ,7,1,0.,12.0,0.,12.0,0.,12.0,0.,12.0
1979-07-05 18:04:54.220 ,3,1,0.,12.0,0.,12.0,0.,12.0,0.,12.0
1979-07-05 18:05:06.220 ,3,1,0.,12.0,0.,12.0,0.,12.0,0.,12.0
1979-07-05 18:05:18.220 ,0,1,0.,12.0,0.,12.0,0.,12.0,0.,12.0
1979-07-05 18:05:30.220 ,0,1,0.,12.0,0.,12.0,0.,12.0,0.,12.0
1979-07-05 18:05:42.220 ,0,0,0.,12.0,0.,12.0,0.,12.0,0.,12.0
1979-07-05 18:05:54.220 ,0,0,0.,12.0,0.,12.0,0.,12.0,0.,12.0
1979-07-05 18:06:06.220 ,0,0,0.,12.0,0.,12.0,0.,12.0,0.,12.0
1979-07-05 18:06:18.220 ,0,0,0.,12.0,0.,12.0,0.,12.0,0.,12.0
1979-07-05 18:06:30.220 ,5,0,0.,12.0,0.,12.0,0.,12.0,0.,12.0
1979-07-05 18:06:42.220 ,5,0,0.,12.0,0.,12.0,0.,12.0,0.,12.0
1979-07-05 18:06:54.220 ,5,0,0.,12.0,0.,12.0,0.,12.0,0.,12.0
1979-07-05 18:07:06.220 ,5,0,0.,12.0,0.,12.0,0.,12.0,0.,12.0
1979-07-05 18:07:18.220 ,4,0,0.,12.0,0.,12.0,0.,12.0,0.,12.0
1979-07-05 18:07:30.220 ,4,0,0.,12.0,0.,12.0,0.,12.0,0.,12.0
1979-07-05 18:07:42.220 ,4,0,0.,12.0,0.,12.0,0.,12.0,0.,12.0
1979-07-05 18:07:54.220 ,4,0,0.,12.0,0.,12.0,0.,12.0,0.,12.0
1979-07-05 18:08:06.220 ,3,0,1.,12.0,0.,12.0,0.,12.0,0.,12.0
1979-07-05 18:08:18.220 ,3,0,0.,12.0,0.,12.0,0.,12.0,0.,12.0
1979-07-05 18:08:30.220 ,3,0,0.,12.0,0.,12.0,0.,12.0,0.,12.0
1979-07-05 18:08:42.220 ,3,0,0.,12.0,0.,12.0,0.,12.0,0.,12.0
1979-07-05 18:08:54.220 ,2,0,0.,12.0,0.,12.0,0.,12.0,0.,12.0
1979-07-05 18:09:06.220 ,2,0,0.,12.0,0.,12.0,0.,12.0,0.,12.0
1979-07-05 18:09:18.220 ,2,0,0.,12.0,0.,12.0,0.,12.0,0.,12.0
1979-07-05 18:09:30.220 ,2,0,0.,12.0,0.,12.0,0.,12.0,0.,12.0
1979-07-05 18:09:42.220 ,1,0,0.,12.0,0.,12.0,0.,12.0,0.,12.0
1979-07-05 18:09:54.220 ,1,0,0.,12.0,0.,12.0,0.,12.0,0.,12.0
1979-07-05 18:10:06.220 ,1,0,0.,12.0,0.,12.0,0.,12.0,0.,12.0
1979-07-05 18:10:18.220 ,1,0,0.,12.0,0.,12.0,0.,12.0,0.,12.0
1979-07-05 18:10:30.220 ,0,0,0.,12.0,0.,12.0,0.,12.0,0.,12.0
1979-07-05 18:10:42.220 ,0,0,0.,12.0,0.,12.0,0.,12.0,0.,12.0
1979-07-05 18:10:54.220 ,0,0,0.,12.0,0.,12.0,0.,12.0,0.,12.0
1979-07-05 18:11:06.220 ,0,0,0.,12.0,0.,12.0,0.,12.0,0.,12.0
1979-07-05 18:11:18.220 ,0,0,0.,12.0,0.,12.0,0.,12.0,0.,12.0
1979-07-05 18:11:30.220 ,0,0,0.,12.0,0.,12.0,0.,12.0,0.,12.0
1979-07-05 18:11:42.220 ,0,0,0.,12.0,0.,12.0,0.,12.0,0.,12.0
1979-07-05 18:11:54.220 ,0,0,0.,12.0,0.,12.0,0.,12.0,0.,12.0
1979-07-05 18:12:06.220 ,1,0,0.,12.0,0.,12.0,0.,12.0,0.,12.0
1979-07-05 18:12:18.220 ,1,0,0.,12.0,0.,12.0,0.,12.0,0.,12.0
1979-07-05 18:12:30.220 ,1,0,0.,12.0,0.,12.0,0.,12.0,0.,12.0
1979-07-05 18:12:42.220 ,1,0,0.,12.0,0.,12.0,0.,12.0,0.,12.0
1979-07-05 18:12:54.220 ,2,0,0.,12.0,0.,12.0,0.,12.0,0.,12.0
1979-07-05 18:13:06.220 ,2,0,0.,12.0,0.,12.0,0.,12.0,0.,12.0
1979-07-05 18:13:18.220 ,2,0,0.,12.0,0.,12.0,0.,12.0,0.,12.0
1979-07-05 18:13:30.220 ,2,0,0.,12.0,0.,12.0,0.,12.0,0.,12.0
1979-07-05 18:13:42.220 ,3,0,0.,12.0,0.,12.0,0.,12.0,0.,12.0
1979-07-05 18:13:54.220 ,3,0,1.,12.0,0.,12.0,0.,12.0,0.,12.0
1979-07-05 18:14:06.220 ,3,0,0.,12.0,0.,12.0,0.,12.0,0.,12.0
1979-07-05 18:14:18.220 ,3,0,0.,12.0,0.,12.0,0.,12.0,0.,12.0
1979-07-05 18:14:30.220 ,4,0,0.,12.0,0.,12.0,0.,12.0,0.,12.0
1979-07-05 18:14:42.220 ,4,0,0.,12.0,0.,12.0,0.,12.0,0.,12.0
1979-07-05 18:14:54.220 ,4,0,0.,12.0,0.,12.0,0.,12.0,0.,12.0
1979-07-05 18:15:06.220 ,4,0,0.,12.0,0.,12.0,0.,12.0,0.,12.0
1979-07-05 18:15:18.220 ,5,0,0.,12.0,0.,12.0,0.,12.0,0.,12.0
1979-07-05 18:15:30.220 ,5,0,0.,12.0,0.,12.0,0.,12.0,0.,12.0
1979-07-05 18:15:42.220 ,5,0,0.,12.0,0.,12.0,0.,12.0,0.,12.0
1979-07-05 18:15:54.220 ,5,0,0.,12.0,0.,12.0,0.,12.0,0.,12.0
1979-07-05 18:16:06.220 ,6,0,0.,12.0,0.,12.0,0.,12.0,0.,12.0
1979-07-05 18:16:18.220 ,6,0,0.,12.0,0.,12.0,0.,12.0,0.,12.0
1979-07-05 18:16:30.220 ,6,0,0.,12.0,0.,12.0,0.,12.0,0.,12.0
1979-07-05 18:16:42.220 ,6,0,0.,12.0,0.,12.0,0.,12.0,0.,12.0
1979-07-05 18:16:54.220 ,7,0,0.,12.0,0.,12.0,0.,12.0,0.,12.0
1979-07-05 18:17:06.220 ,7,0,0.,12.0,0.,12.0,0.,12.0,0.,12.0
1979-07-05 18:17:18.220 ,7,0,0.,12.0,0.,12.0,0.,12.0,0.,12.0
1979-07-05 18:17:30.220 ,7,0,0.,12.0,0.,12.0,0.,12.0,0.,12.0
1979-07-05 18:17:42.220 ,7,0,0.,12.0,0.,12.0,0.,12.0,0.,12.0
1979-07-05 18:17:54.220 ,7,0,0.,12.0,0.,12.0,0.,12.0,0.,12.0
1979-07-05 18:18:06.220 ,7,0,0.,12.0,0.,12.0,0.,12.0,0.,12.0
1979-07-05 18:18:18.220 ,7,0,0.,12.0,0.,12.0,0.,12.0,0.,12.0
1979-07-05 18:18:30.220 ,6,0,0.,12.0,0.,12.0,0.,12.0,0.,12.0
1979-07-05 18:18:42.220 ,6,0,0.,12.0,0.,12.0,0.,12.0,0.,12.0
1979-07-05 18:18:54.220 ,6,0,0.,12.0,0.,12.0,0.,12.0,0.,12.0
1979-07-05 18:19:06.220 ,6,0,0.,12.0,0.,12.0,0.,12.0,0.,12.0
1979-07-05 18:19:18.220 ,5,0,0.,12.0,0.,12.0,0.,12.0,0.,12.0
1979-07-05 18:19:30.220 ,5,0,0.,12.0,0.,12.0,0.,12.0,0.,12.0
1979-07-05 18:19:42.220 ,5,0,0.,12.0,0.,12.0,0.,12.0,0.,12.0
1979-07-05 18:19:54.220 ,5,0,0.,12.0,0.,12.0,0.,12.0,0.,12.0
1979-07-05 18:20:06.220 ,4,0,0.,12.0,0.,12.0,0.,12.0,0.,12.0
1979-07-05 18:20:18.220 ,4,0,0.,12.0,0.,12.0,0.,12.0,0.,12.0
1979-07-05 18:20:30.220 ,4,0,0.,12.0,0.,12.0,0.,12.0,0.,12.0
1979-07-05 18:20:42.220 ,4,0,0.,12.0,0.,12.0,0.,12.0,0.,12.0
1979-07-05 18:20:54.220 ,3,0,0.,12.0,0.,12.0,0.,12.0,0.,12.0
1979-07-05 18:21:06.220 ,3,0,0.,12.0,0.,12.0,0.,12.0,0.,12.0
1979-07-05 18:21:18.220 ,3,0,0.,12.0,0.,12.0,0.,12.0,0.,12.0
1979-07-05 18:21:30.220 ,3,0,0.,12.0,0.,12.0,0.,12.0,0.,12.0
1979-07-05 18:21:42.220 ,2,0,0.,12.0,0.,12.0,0.,12.0,0.,12.0
1979-07-05 18:21:54.220 ,2,0,0.,12.0,0.,12.0,0.,12.0,0.,12.0
1979-07-05 18:22:06.220 ,2,0,0.,12.0,0.,12.0,0.,12.0,0.,12.0
1979-07-05 18:22:18.220 ,2,0,0.,12.0,0.,12.0,0.,12.0,0.,12.0
1979-07-05 18:22:30.220 ,1,0,0.,12.0,0.,12.0,0.,12.0,0.,12.0
1979-07-05 18:22:42.220 ,1,0,0.,12.0,0.,12.0,0.,12.0,0.,12.0
1979-07-05 18:22:54.220 ,1,0,0.,12.0,0.,12.0,0.,12.0,0.,12.0
1979-07-05 18:23:06.220 ,1,0,0.,12.0,0.,12.0,0.,12.0,0.,12.0
1979-07-05 18:23:18.220 ,0,0,0.,12.0,0.,12.0,0.,12.0,0.,12.0
1979-07-05 18:23:30.220 ,0,0,0.,12.0,0.,12.0,0.,12.0,0.,12.0
1979-07-05 18:23:42.220 ,0,0,0.,12.0,0.,12.0,0.,12.0,0.,12.0
1979-07-05 18:23:54.220 ,0,0,0.,12.0,0.,12.0,0.,12.0,0.,12.0
1979-07-05 18:24:06.220 ,0,0,0.,12.0,0.,12.0,0.,12.0,0.,12.0
1979-07-05 18:24:18.220 ,0,0,0.,12.0,0.,12.0,0.,12.0,0.,12.0
1979-07-05 18:24:30.220 ,0,0,0.,12.0,0.,12.0,0.,12.0,0.,12.0
1979-07-05 18:24:42.220 ,0,0,0.,12.0,0.,12.0,0.,12.0,0.,12.0
1979-07-05 18:24:54.220 ,1,0,0.,12.0,0.,12.0,0.,12.0,0.,12.0
1979-07-05 18:25:06.220 ,1,0,0.,12.0,0.,12.0,0.,12.0,0.,12.0
1979-07-05 18:25:18.220 ,1,0,0.,12.0,0.,12.0,0.,12.0,0.,12.0
1979-07-05 18:25:30.220 ,1,0,0.,12.0,0.,12.0,0.,12.0,0.,12.0
1979-07-05 18:25:42.220 ,2,0,0.,12.0,0.,12.0,0.,12.0,0.,12.0
1979-07-05 18:25:54.220 ,2,0,0.,12.0,0.,12.0,0.,12.0,0.,12.0
1979-07-05 18:26:06.220 ,2,0,0.,12.0,0.,12.0,0.,12.0,0.,12.0
1979-07-05 18:26:18.220 ,2,0,0.,12.0,0.,12.0,0.,12.0,0.,12.0
1979-07-05 18:26:30.220 ,3,0,0.,12.0,0.,12.0,0.,12.0,0.,12.0
1979-07-05 18:26:42.220 ,3,0,0.,12.0,0.,12.0,0.,12.0,0.,12.0
1979-07-05 18:26:54.220 ,3,0,0.,12.0,0.,12.0,0.,12.0,0.,12.0
1979-07-05 18:27:06.220 ,3,0,0.,12.0,0.,12.0,0.,12.0,0.,12.0
1979-07-05 18:27:18.220 ,4,0,0.,12.0,0.,12.0,0.,12.0,0.,12.0
1979-07-05 18:27:30.220 ,4,0,0.,12.0,0.,12.0,0.,12.0,0.,12.0
1979-07-05 18:27:42.220 ,4,0,0.,12.0,0.,12.0,0.,12.0,0.,12.0
1979-07-05 18:27:54.220 ,4,0,0.,12.0,0.,12.0,0.,12.0,0.,12.0
1979-07-05 18:28:06.220 ,5,0,0.,12.0,0.,12.0,0.,12.0,0.,12.0
1979-07-05 18:28:18.220 ,5,0,0.,12.0,0.,12.0,0.,12.0,0.,12.0
1979-07-05 18:28:30.220 ,5,0,0.,12.0,0.,12.0,0.,12.0,0.,12.0
1979-07-05 18:28:42.220 ,5,0,0.,12.0,0.,12.0,0.,12.0,0.,12.0
1979-07-05 18:28:54.220 ,6,0,0.,12.0,1.,12.0,0.,12.0,0.,12.0
1979-07-05 18:29:06.220 ,6,0,0.,12.0,0.,12.0,0.,12.0,0.,12.0
1979-07-05 18:29:18.220 ,6,0,0.,12.0,0.,12.0,0.,12.0,0.,12.0
1979-07-05 18:29:30.220 ,6,0,0.,12.0,0.,12.0,0.,12.0,0.,12.0
1979-07-05 18:29:42.220 ,7,0,0.,12.0,0.,12.0,0.,12.0,0.,12.0
1979-07-05 18:29:54.220 ,7,0,0.,12.0,0.,12.0,0.,12.0,0.,12.0
1979-07-05 18:30:06.220 ,7,0,0.,12.0,0.,12.0,0.,12.0,0.,12.0
1979-07-05 18:30:18.220 ,7,0,0.,12.0,0.,12.0,0.,12.0,0.,12.0
1979-07-05 18:30:30.220 ,7,0,0.,12.0,0.,12.0,0.,12.0,0.,12.0
1979-07-05 18:30:42.220 ,7,0,0.,12.0,0.,12.0,0.,12.0,0.,12.0
1979-07-05 18:30:54.220 ,7,0,0.,12.0,0.,12.0,0.,12.0,0.,12.0
1979-07-05 18:31:06.220 ,7,0,0.,12.0,0.,12.0,0.,12.0,0.,12.0
1979-07-05 18:31:18.220 ,6,0,0.,12.0,0.,12.0,0.,12.0,0.,12.0
1979-07-05 18:31:30.220 ,6,0,0.,12.0,0.,12.0,0.,12.0,0.,12.0
1979-07-05 18:31:42.220 ,6,0,0.,12.0,0.,12.0,0.,12.0,0.,12.0
1979-07-05 18:31:54.220 ,6,0,0.,12.0,0.,12.0,0.,12.0,0.,12.0
1979-07-05 18:32:06.220 ,5,0,0.,12.0,0.,12.0,0.,12.0,0.,12.0
1979-07-05 18:32:18.220 ,5,0,0.,12.0,0.,12.0,0.,12.0,0.,12.0
1979-07-05 18:32:30.220 ,5,0,0.,12.0,0.,12.0,0.,12.0,0.,12.0
1979-07-05 18:32:42.220 ,5,0,0.,12.0,0.,12.0,0.,12.0,0.,12.0
1979-07-05 18:32:54.220 ,4,0,0.,12.0,0.,12.0,0.,12.0,0.,12.0
1979-07-05 18:33:06.220 ,4,0,0.,12.0,0.,12.0,0.,12.0,0.,12.0
1979-07-05 18:33:18.220 ,4,0,0.,12.0,0.,12.0,0.,12.0,0.,12.0
1979-07-05 18:33:30.220 ,4,0,0.,12.0,0.,12.0,0.,12.0,0.,12.0
1979-07-05 18:33:42.220 ,3,0,0.,12.0,0.,12.0,0.,12.0,0.,12.0
1979-07-05 18:33:54.220 ,3,0,0.,12.0,0.,12.0,0.,12.0,0.,12.0
1979-07-05 18:34:06.220 ,3,0,0.,12.0,0.,12.0,0.,12.0,0.,12.0
1979-07-05 18:34:18.220 ,3,0,0.,12.0,0.,12.0,0.,12.0,0.,12.0
1979-07-05 18:34:30.220 ,2,0,0.,12.0,0.,12.0,0.,12.0,0.,12.0
1979-07-05 18:34:42.220 ,2,0,0.,12.0,0.,12.0,0.,12.0,0.,12.0
1979-07-05 18:34:54.220 ,2,0,0.,12.0,0.,12.0,0.,12.0,0.,12.0
1979-07-05 18:35:06.220 ,2,0,0.,12.0,0.,12.0,0.,12.0,0.,12.0
1979-07-05 18:35:18.220 ,1,0,0.,12.0,0.,12.0,0.,12.0,0.,12.0
1979-07-05 18:35:30.220 ,1,0,0.,12.0,0.,12.0,0.,12.0,0.,12.0
1979-07-05 18:35:42.220 ,1,0,0.,12.0,0.,12.0,0.,12.0,0.,12.0
1979-07-05 18:35:54.220 ,1,0,0.,12.0,0.,12.0,0.,12.0,0.,12.0
1979-07-05 18:36:06.220 ,0,0,0.,12.0,0.,12.0,0.,12.0,0.,12.0
1979-07-05 18:36:18.220 ,0,0,0.,12.0,0.,12.0,0.,12.0,0.,12.0
1979-07-05 18:36:30.220 ,0,0,0.,12.0,0.,12.0,0.,12.0,0.,12.0
1979-07-05 18:36:42.220 ,0,0,0.,12.0,0.,12.0,0.,12.0,0.,12.0
1979-07-05 18:36:54.220 ,0,0,0.,12.0,0.,12.0,0.,12.0,0.,12.0
1979-07-05 18:37:06.220 ,0,0,0.,12.0,0.,12.0,0.,12.0,0.,12.0
1979-07-05 18:37:18.220 ,0,0,0.,12.0,0.,12.0,0.,12.0,0.,12.0
1979-07-05 18:37:30.220 ,0,0,0.,12.0,0.,12.0,0.,12.0,0.,12.0
1979-07-05 18:37:42.220 ,1,0,0.,12.0,0.,12.0,0.,12.0,0.,12.0
1979-07-05 18:37:54.220 ,1,0,0.,12.0,0.,12.0,0.,12.0,0.,12.0
1979-07-05 18:38:06.220 ,1,0,0.,12.0,0.,12.0,0.,12.0,0.,12.0
1979-07-05 18:38:18.220 ,1,0,0.,12.0,0.,12.0,0.,12.0,0.,12.0
1979-07-05 18:38:30.220 ,2,0,0.,12.0,0.,12.0,0.,12.0,0.,12.0
1979-07-05 18:38:42.220 ,2,0,0.,12.0,0.,12.0,0.,12.0,0.,12.0
1979-07-05 18:38:54.220 ,2,0,0.,12.0,0.,12.0,0.,12.0,0.,12.0
1979-07-05 18:39:06.220 ,2,0,0.,12.0,0.,12.0,0.,12.0,0.,12.0
1979-07-05 18:39:18.220 ,3,0,0.,12.0,0.,12.0,0.,12.0,0.,12.0
1979-07-05 18:39:30.220 ,3,0,0.,12.0,0.,12.0,0.,12.0,0.,12.0
1979-07-05 18:39:42.220 ,3,0,0.,12.0,0.,12.0,0.,12.0,0.,12.0
1979-07-05 18:39:54.220 ,3,0,0.,12.0,0.,12.0,0.,12.0,0.,12.0
1979-07-05 18:40:06.220 ,4,0,0.,12.0,0.,12.0,0.,12.0,0.,12.0
1979-07-05 18:40:18.220 ,4,0,0.,12.0,0.,12.0,0.,12.0,0.,12.0
1979-07-05 18:40:30.220 ,4,0,0.,12.0,0.,12.0,0.,12.0,0.,12.0
1979-07-05 18:40:42.220 ,4,0,0.,12.0,0.,12.0,0.,12.0,0.,12.0
1979-07-05 18:40:54.220 ,5,0,0.,12.0,0.,12.0,0.,12.0,0.,12.0
1979-07-05 18:41:06.220 ,5,0,0.,12.0,0.,12.0,0.,12.0,0.,12.0
1979-07-05 18:41:18.220 ,5,0,0.,12.0,0.,12.0,0.,12.0,0.,12.0
1979-07-05 18:41:30.220 ,5,0,0.,12.0,0.,12.0,0.,12.0,0.,12.0
1979-07-05 18:41:42.220 ,6,0,0.,12.0,0.,12.0,0.,12.0,0.,12.0
1979-07-05 18:41:54.220 ,6,0,0.,12.0,0.,12.0,0.,12.0,0.,12.0
1979-07-05 18:42:06.220 ,6,0,0.,12.0,0.,12.0,0.,12.0,0.,12.0
1979-07-05 18:42:18.220 ,6,0,0.,12.0,0.,12.0,0.,12.0,0.,12.0
1979-07-05 18:42:30.220 ,7,0,0.,12.0,0.,12.0,0.,12.0,0.,12.0
1979-07-05 18:42:42.220 ,7,0,0.,12.0,0.,12.0,0.,12.0,0.,12.0
1979-07-05 18:42:54.220 ,7,0,0.,12.0,0.,12.0,0.,12.0,0.,12.0
1979-07-05 18:43:06.220 ,7,0,0.,12.0,0.,12.0,0.,12.0,0.,12.0
1979-07-05 18:43:18.220 ,3,1,0.,12.0,0.,12.0,0.,12.0,0.,12.0
1979-07-05 18:43:30.220 ,3,1,0.,12.0,0.,12.0,0.,12.0,0.,12.0
1979-07-05 18:43:42.220 ,0,1,0.,12.0,0.,12.0,0.,12.0,0.,12.0
1979-07-05 18:43:54.220 ,0,1,0.,12.0,0.,12.0,0.,12.0,0.,12.0
1979-07-05 18:44:06.220 ,4,1,0.,12.0,0.,12.0,0.,12.0,0.,12.0
1979-07-05 18:44:18.220 ,4,1,0.,12.0,0.,12.0,0.,12.0,0.,12.0
1979-07-05 18:44:30.220 ,7,1,0.,12.0,0.,12.0,0.,12.0,0.,12.0
1979-07-05 18:44:42.220 ,7,1,0.,12.0,0.,12.0,0.,12.0,0.,12.0
1979-07-05 18:44:54.220 ,3,1,0.,12.0,0.,12.0,0.,12.0,0.,12.0
1979-07-05 18:45:06.220 ,3,1,0.,12.0,0.,12.0,0.,12.0,0.,12.0
1979-07-05 18:45:18.220 ,0,1,0.,12.0,0.,12.0,0.,12.0,0.,12.0
1979-07-05 18:45:30.220 ,0,1,0.,12.0,0.,12.0,0.,12.0,0.,12.0
1979-07-05 18:45:42.220 ,4,1,0.,12.0,0.,12.0,0.,12.0,0.,12.0
1979-07-05 18:45:54.220 ,4,1,0.,12.0,0.,12.0,0.,12.0,0.,12.0
1979-07-05 18:46:06.220 ,7,1,0.,12.0,0.,12.0,0.,12.0,0.,12.0
1979-07-05 18:46:18.220 ,7,1,0.,12.0,0.,12.0,0.,12.0,0.,12.0
1979-07-05 18:46:30.220 ,3,1,0.,12.0,0.,12.0,0.,12.0,0.,12.0
1979-07-05 18:46:42.220 ,3,1,0.,12.0,0.,12.0,0.,12.0,0.,12.0
1979-07-05 18:46:54.220 ,0,1,0.,12.0,0.,12.0,0.,12.0,0.,12.0
1979-07-05 18:47:06.220 ,0,1,0.,12.0,0.,12.0,0.,12.0,0.,12.0
1979-07-05 18:47:18.220 ,4,1,0.,12.0,0.,12.0,0.,12.0,0.,12.0
1979-07-05 18:47:30.220 ,4,1,0.,12.0,0.,12.0,0.,12.0,0.,12.0
1979-07-05 18:47:42.220 ,7,1,0.,12.0,0.,12.0,0.,12.0,0.,12.0
1979-07-05 18:47:54.220 ,7,1,0.,12.0,0.,12.0,0.,12.0,0.,12.0
1979-07-05 18:48:06.220 ,3,1,0.,12.0,0.,12.0,0.,12.0,0.,12.0
1979-07-05 18:48:18.220 ,3,1,0.,12.0,0.,12.0,0.,12.0,0.,12.0
1979-07-05 18:48:30.220 ,0,1,0.,12.0,0.,12.0,0.,12.0,0.,12.0
1979-07-05 18:48:42.220 ,0,1,0.,12.0,0.,12.0,0.,12.0,0.,12.0
1979-07-05 18:48:54.220 ,4,1,0.,12.0,0.,12.0,0.,12.0,0.,12.0
1979-07-05 18:49:06.220 ,4,1,0.,12.0,0.,12.0,0.,12.0,0.,12.0
1979-07-05 18:49:18.220 ,7,1,0.,12.0,0.,12.0,0.,12.0,0.,12.0
1979-07-05 18:49:30.220 ,7,1,0.,12.0,0.,12.0,0.,12.0,0.,12.0
1979-07-05 18:49:42.220 ,3,1,0.,12.0,0.,12.0,0.,12.0,0.,12.0
1979-07-05 18:49:54.220 ,3,1,0.,12.0,0.,12.0,0.,12.0,0.,12.0
1979-07-05 18:50:06.220 ,0,1,0.,12.0,0.,12.0,0.,12.0,0.,12.0
1979-07-05 18:50:18.220 ,0,1,0.,12.0,0.,12.0,0.,12.0,0.,12.0
1979-07-05 18:50:30.220 ,4,1,0.,12.0,0.,12.0,0.,12.0,0.,12.0
1979-07-05 18:50:42.220 ,4,1,0.,12.0,0.,12.0,0.,12.0,0.,12.0
1979-07-05 18:50:54.220 ,7,1,0.,12.0,0.,12.0,0.,12.0,0.,12.0
1979-07-05 18:51:06.220 ,7,1,0.,12.0,0.,12.0,0.,12.0,0.,12.0
1979-07-05 18:51:18.220 ,3,1,0.,12.0,0.,12.0,0.,12.0,0.,12.0
1979-07-05 18:51:30.220 ,3,1,0.,12.0,0.,12.0,0.,12.0,0.,12.0
1979-07-05 18:51:42.220 ,0,1,0.,12.0,0.,12.0,0.,12.0,0.,12.0
1979-07-05 18:51:54.220 ,0,1,1.,12.0,0.,12.0,0.,12.0,0.,12.0
1979-07-05 18:52:06.220 ,4,1,0.,12.0,0.,12.0,0.,12.0,0.,12.0
1979-07-05 18:52:18.220 ,4,1,0.,12.0,0.,12.0,0.,12.0,0.,12.0
1979-07-05 18:52:30.220 ,7,1,0.,12.0,0.,12.0,0.,12.0,0.,12.0
1979-07-05 18:52:42.220 ,7,1,0.,12.0,0.,12.0,0.,12.0,0.,12.0
1979-07-05 18:52:54.220 ,3,1,0.,12.0,0.,12.0,0.,12.0,0.,12.0
1979-07-05 18:53:06.220 ,3,1,0.,12.0,0.,12.0,0.,12.0,0.,12.0
1979-07-05 18:53:18.220 ,0,1,0.,12.0,0.,12.0,0.,12.0,0.,12.0
1979-07-05 18:53:30.220 ,0,1,0.,12.0,0.,12.0,0.,12.0,0.,12.0
1979-07-05 18:53:42.220 ,0,0,0.,12.0,0.,12.0,0.,12.0,0.,12.0
1979-07-05 18:53:54.220 ,0,0,0.,12.0,0.,12.0,0.,12.0,0.,12.0
1979-07-05 18:54:06.220 ,0,0,1.,12.0,0.,12.0,0.,12.0,0.,12.0
1979-07-05 18:54:18.220 ,0,0,0.,12.0,0.,12.0,0.,12.0,0.,12.0
1979-07-05 18:54:30.220 ,5,0,0.,12.0,0.,12.0,0.,12.0,0.,12.0
1979-07-05 18:54:42.220 ,5,0,1.,12.0,0.,12.0,0.,12.0,0.,12.0
1979-07-05 18:54:54.220 ,5,0,0.,12.0,0.,12.0,0.,12.0,0.,12.0
1979-07-05 18:55:06.220 ,5,0,0.,12.0,0.,12.0,0.,12.0,0.,12.0
1979-07-05 18:55:18.220 ,4,0,0.,12.0,0.,12.0,0.,12.0,0.,12.0
1979-07-05 18:55:30.220 ,4,0,0.,12.0,0.,12.0,0.,12.0,0.,12.0
1979-07-05 18:55:42.220 ,4,0,0.,12.0,0.,12.0,0.,12.0,0.,12.0
1979-07-05 18:55:54.220 ,4,0,0.,12.0,0.,12.0,0.,12.0,0.,12.0
1979-07-05 18:56:06.220 ,3,0,0.,12.0,0.,12.0,0.,12.0,0.,12.0
1979-07-05 18:56:18.220 ,3,0,0.,12.0,0.,12.0,0.,12.0,0.,12.0
1979-07-05 18:56:30.220 ,3,0,0.,12.0,0.,12.0,0.,12.0,0.,12.0
1979-07-05 18:56:42.220 ,3,0,0.,12.0,0.,12.0,0.,12.0,0.,12.0
1979-07-05 18:56:54.220 ,2,0,0.,12.0,0.,12.0,0.,12.0,0.,12.0
1979-07-05 18:57:06.220 ,2,0,0.,12.0,0.,12.0,0.,12.0,0.,12.0
1979-07-05 18:57:18.220 ,2,0,0.,12.0,0.,12.0,0.,12.0,0.,12.0
1979-07-05 18:57:30.220 ,2,0,0.,12.0,0.,12.0,0.,12.0,0.,12.0
1979-07-05 18:57:42.220 ,1,0,0.,12.0,0.,12.0,0.,12.0,0.,12.0
1979-07-05 18:57:54.220 ,1,0,0.,12.0,0.,12.0,0.,12.0,0.,12.0
1979-07-05 18:58:06.220 ,1,0,0.,12.0,0.,12.0,0.,12.0,0.,12.0
1979-07-05 18:58:18.220 ,1,0,0.,12.0,0.,12.0,0.,12.0,0.,12.0
1979-07-05 18:58:30.220 ,0,0,0.,12.0,0.,12.0,0.,12.0,0.,12.0
1979-07-05 18:58:42.220 ,0,0,0.,12.0,0.,12.0,0.,12.0,0.,12.0
1979-07-05 18:58:54.220 ,0,0,0.,12.0,0.,12.0,0.,12.0,0.,12.0
1979-07-05 18:59:06.220 ,0,0,0.,12.0,0.,12.0,0.,12.0,0.,12.0
1979-07-05 18:59:18.220 ,0,0,0.,12.0,0.,12.0,0.,12.0,0.,12.0
1979-07-05 18:59:30.220 ,0,0,0.,12.0,0.,12.0,0.,12.0,0.,12.0
1979-07-05 18:59:42.220 ,0,0,0.,12.0,0.,12.0,0.,12.0,0.,12.0
1979-07-05 18:59:54.220 ,0,0,0.,12.0,0.,12.0,0.,12.0,0.,12.0
1979-07-05 19:00:06.220 ,1,0,0.,12.0,0.,12.0,0.,12.0,0.,12.0
1979-07-05 19:00:18.220 ,1,0,0.,12.0,0.,12.0,0.,12.0,0.,12.0
1979-07-05 19:00:30.220 ,1,0,0.,12.0,0.,12.0,0.,12.0,0.,12.0
1979-07-05 19:00:42.220 ,1,0,0.,12.0,0.,12.0,0.,12.0,0.,12.0
1979-07-05 19:00:54.220 ,2,0,0.,12.0,0.,12.0,0.,12.0,0.,12.0
1979-07-05 19:01:06.220 ,2,0,0.,12.0,0.,12.0,0.,12.0,0.,12.0
1979-07-05 19:01:18.220 ,2,0,0.,12.0,0.,12.0,0.,12.0,0.,12.0
1979-07-05 19:01:30.220 ,2,0,0.,12.0,0.,12.0,0.,12.0,0.,12.0
1979-07-05 19:01:42.220 ,3,0,0.,12.0,0.,12.0,0.,12.0,0.,12.0
1979-07-05 19:01:54.220 ,3,0,0.,12.0,0.,12.0,0.,12.0,0.,12.0
1979-07-05 19:02:06.220 ,3,0,0.,12.0,0.,12.0,0.,12.0,0.,12.0
1979-07-05 19:02:18.220 ,3,0,0.,12.0,0.,12.0,0.,12.0,0.,12.0
1979-07-05 19:02:30.220 ,4,0,0.,12.0,0.,12.0,0.,12.0,0.,12.0
1979-07-05 19:02:42.220 ,4,0,0.,12.0,0.,12.0,0.,12.0,0.,12.0
1979-07-05 19:02:54.220 ,4,0,0.,12.0,0.,12.0,0.,12.0,0.,12.0
1979-07-05 19:03:06.220 ,4,0,0.,12.0,0.,12.0,0.,12.0,0.,12.0
1979-07-05 19:03:18.220 ,5,0,0.,12.0,0.,12.0,0.,12.0,0.,12.0
1979-07-05 19:03:30.220 ,5,0,0.,12.0,0.,12.0,0.,12.0,0.,12.0
1979-07-05 19:03:42.220 ,5,0,0.,12.0,0.,12.0,0.,12.0,0.,12.0
1979-07-05 19:03:54.220 ,5,0,0.,12.0,0.,12.0,0.,12.0,0.,12.0
1979-07-05 19:04:06.220 ,6,0,0.,12.0,0.,12.0,0.,12.0,0.,12.0
1979-07-05 19:04:18.220 ,6,0,0.,12.0,0.,12.0,0.,12.0,0.,12.0
1979-07-05 19:04:30.220 ,6,0,0.,12.0,0.,12.0,0.,12.0,0.,12.0
1979-07-05 19:04:42.220 ,6,0,0.,12.0,0.,12.0,0.,12.0,0.,12.0
1979-07-05 19:04:54.220 ,7,0,0.,12.0,0.,12.0,0.,12.0,0.,12.0
1979-07-05 19:05:06.220 ,7,0,0.,12.0,0.,12.0,0.,12.0,0.,12.0
1979-07-05 19:05:18.220 ,7,0,0.,12.0,0.,12.0,0.,12.0,0.,12.0
1979-07-05 19:05:30.220 ,7,0,0.,12.0,0.,12.0,0.,12.0,0.,12.0
1979-07-05 19:05:42.220 ,7,0,0.,12.0,0.,12.0,0.,12.0,0.,12.0
1979-07-05 19:05:54.220 ,7,0,0.,12.0,0.,12.0,0.,12.0,0.,12.0
1979-07-05 19:06:06.220 ,7,0,0.,12.0,0.,12.0,0.,12.0,0.,12.0
1979-07-05 19:06:18.220 ,7,0,0.,12.0,0.,12.0,0.,12.0,0.,12.0
1979-07-05 19:06:30.220 ,6,0,0.,12.0,0.,12.0,0.,12.0,0.,12.0
1979-07-05 19:06:42.220 ,6,0,0.,12.0,0.,12.0,0.,12.0,0.,12.0
1979-07-05 19:06:54.220 ,6,0,0.,12.0,0.,12.0,0.,12.0,0.,12.0
1979-07-05 19:07:06.220 ,6,0,0.,12.0,0.,12.0,0.,12.0,0.,12.0
1979-07-05 19:07:18.220 ,5,0,0.,12.0,0.,12.0,0.,12.0,0.,12.0
1979-07-05 19:07:30.220 ,5,0,0.,12.0,0.,12.0,0.,12.0,0.,12.0
1979-07-05 19:07:42.220 ,5,0,0.,12.0,0.,12.0,0.,12.0,0.,12.0
1979-07-05 19:07:54.220 ,5,0,0.,12.0,0.,12.0,0.,12.0,0.,12.0
1979-07-05 19:08:06.220 ,4,0,0.,12.0,0.,12.0,0.,12.0,0.,12.0
1979-07-05 19:08:18.220 ,4,0,0.,12.0,0.,12.0,0.,12.0,0.,12.0
1979-07-05 19:08:30.220 ,4,0,0.,12.0,0.,12.0,0.,12.0,0.,12.0
1979-07-05 19:08:42.220 ,4,0,0.,12.0,0.,12.0,0.,12.0,0.,12.0
1979-07-05 19:10:30.220 ,0,0,0.,12.0,0.,12.0,0.,12.0,0.,12.0
1979-07-05 19:10:42.220 ,0,0,0.,12.0,0.,12.0,0.,12.0,0.,12.0
1979-07-05 19:10:54.220 ,0,0,0.,12.0,0.,12.0,0.,12.0,0.,12.0
1979-07-05 19:11:06.220 ,0,0,0.,12.0,0.,12.0,0.,12.0,0.,12.0
1979-07-05 19:11:18.220 ,0,0,0.,12.0,0.,12.0,0.,12.0,0.,12.0
1979-07-05 19:11:30.220 ,0,0,0.,12.0,0.,12.0,0.,12.0,0.,12.0
1979-07-05 19:11:42.220 ,0,0,0.,12.0,0.,12.0,0.,12.0,0.,12.0
1979-07-05 19:11:54.220 ,0,0,0.,12.0,0.,12.0,0.,12.0,0.,12.0
1979-07-05 19:12:06.220 ,0,0,0.,12.0,0.,12.0,0.,12.0,0.,12.0
1979-07-05 19:12:18.220 ,0,0,0.,12.0,0.,12.0,0.,12.0,0.,12.0
1979-07-05 19:12:30.220 ,0,0,0.,12.0,0.,12.0,0.,12.0,0.,12.0
1979-07-05 19:12:42.220 ,0,0,0.,12.0,0.,12.0,0.,12.0,0.,12.0
1979-07-05 19:12:54.220 ,1,0,0.,12.0,0.,12.0,0.,12.0,0.,12.0
1979-07-05 19:13:06.220 ,1,0,0.,12.0,0.,12.0,0.,12.0,0.,12.0
1979-07-05 19:13:18.220 ,1,0,0.,12.0,0.,12.0,0.,12.0,0.,12.0
1979-07-05 19:13:30.220 ,1,0,0.,12.0,0.,12.0,0.,12.0,0.,12.0
1979-07-05 19:13:42.220 ,2,0,0.,12.0,0.,12.0,0.,12.0,0.,12.0
1979-07-05 19:13:54.220 ,2,0,0.,12.0,0.,12.0,0.,12.0,0.,12.0
1979-07-05 19:14:06.220 ,2,0,0.,12.0,0.,12.0,0.,12.0,0.,12.0
1979-07-05 19:14:18.220 ,2,0,1.,12.0,0.,12.0,0.,12.0,0.,12.0
1979-07-05 19:14:30.220 ,3,0,0.,12.0,0.,12.0,0.,12.0,0.,12.0
1979-07-05 19:14:42.220 ,3,0,0.,12.0,0.,12.0,0.,12.0,0.,12.0
1979-07-05 19:14:54.220 ,3,0,0.,12.0,0.,12.0,0.,12.0,0.,12.0
1979-07-05 19:15:06.220 ,3,0,0.,12.0,0.,12.0,0.,12.0,0.,12.0
1979-07-05 19:15:18.220 ,4,0,0.,12.0,0.,12.0,0.,12.0,0.,12.0
1979-07-05 19:15:30.220 ,4,0,0.,12.0,0.,12.0,0.,12.0,0.,12.0
1979-07-05 19:15:42.220 ,4,0,0.,12.0,0.,12.0,0.,12.0,0.,12.0
1979-07-05 19:15:54.220 ,4,0,0.,12.0,0.,12.0,0.,12.0,0.,12.0
1979-07-05 19:16:06.220 ,5,0,1.,12.0,0.,12.0,0.,12.0,0.,12.0
1979-07-05 19:16:18.220 ,5,0,0.,12.0,0.,12.0,0.,12.0,0.,12.0
1979-07-05 19:16:30.220 ,5,0,0.,12.0,0.,12.0,0.,12.0,0.,12.0
1979-07-05 19:16:42.220 ,5,0,0.,12.0,0.,12.0,0.,12.0,0.,12.0
1979-07-05 19:16:54.220 ,6,0,0.,12.0,0.,12.0,0.,12.0,0.,12.0
1979-07-05 19:17:06.220 ,6,0,0.,12.0,0.,12.0,0.,12.0,0.,12.0
1979-07-05 19:17:18.220 ,6,0,0.,12.0,0.,12.0,0.,12.0,0.,12.0
1979-07-05 19:17:30.220 ,6,0,0.,12.0,0.,12.0,0.,12.0,0.,12.0
1979-07-05 19:17:42.220 ,7,0,0.,12.0,0.,12.0,0.,12.0,0.,12.0
1979-07-05 19:17:54.220 ,7,0,0.,12.0,0.,12.0,0.,12.0,0.,12.0
1979-07-05 19:18:06.220 ,7,0,0.,12.0,0.,12.0,0.,12.0,0.,12.0
1979-07-05 19:18:18.220 ,7,0,0.,12.0,0.,12.0,0.,12.0,0.,12.0
1979-07-05 19:18:30.220 ,7,0,0.,12.0,0.,12.0,0.,12.0,0.,12.0
1979-07-05 19:18:42.220 ,7,0,0.,12.0,0.,12.0,0.,12.0,0.,12.0
1979-07-05 19:18:54.220 ,7,0,0.,12.0,0.,12.0,0.,12.0,0.,12.0
1979-07-05 19:19:06.220 ,7,0,0.,12.0,0.,12.0,0.,12.0,0.,12.0